TimeEST,TemperatureF,Dew PointF,Humidity,Sea Level PressureIn,VisibilityMPH,Wind Direction,Wind SpeedMPH,Gust SpeedMPH,PrecipitationIn,Events,Conditions,WindDirDegrees,DateUTC
12:15 AM,59.0,59.0,100,29.77,10.0,SSW,5.8,-,N/A,,Overcast,200,2012-12-18 05:15:00
12:35 AM,59.0,59.0,100,29.77,10.0,SSW,6.9,-,N/A,,Overcast,210,2012-12-18 05:35:00
12:55 AM,60.8,60.8,100,29.77,10.0,SSW,3.5,-,N/A,,Overcast,210,2012-12-18 05:55:00
1:15 AM,59.0,59.0,100,29.77,7.0,SSW,3.5,-,N/A,,Overcast,200,2012-12-18 06:15:00
1:35 AM,59.0,59.0,100,29.77,10.0,SW,3.5,-,N/A,,Overcast,230,2012-12-18 06:35:00
1:55 AM,59.0,59.0,100,29.78,10.0,SW,3.5,-,N/A,,Overcast,220,2012-12-18 06:55:00
2:15 AM,59.0,59.0,100,29.78,10.0,SW,5.8,-,N/A,,Overcast,230,2012-12-18 07:15:00
2:35 AM,59.0,59.0,100,29.78,10.0,WSW,4.6,-,N/A,,Overcast,240,2012-12-18 07:35:00
2:55 AM,59.0,59.0,100,29.78,10.0,SW,3.5,-,N/A,,Overcast,220,2012-12-18 07:55:00
3:15 AM,59.0,59.0,100,29.78,10.0,Calm,Calm,-,N/A,,Mostly Cloudy,0,2012-12-18 08:15:00
3:35 AM,59.0,59.0,100,29.77,10.0,South,3.5,-,N/A,,Clear,190,2012-12-18 08:35:00
3:55 AM,59.0,59.0,100,29.76,10.0,Calm,Calm,-,N/A,,Clear,0,2012-12-18 08:55:00
4:15 AM,57.2,57.2,100,29.77,10.0,Calm,Calm,-,N/A,,Mostly Cloudy,0,2012-12-18 09:15:00
4:35 AM,55.4,55.4,100,29.78,7.0,SSW,3.5,-,N/A,,Overcast,210,2012-12-18 09:35:00
4:55 AM,59.0,59.0,100,29.78,10.0,SSW,3.5,-,N/A,,Overcast,210,2012-12-18 09:55:00
5:15 AM,59.0,59.0,100,29.78,10.0,SW,3.5,-,N/A,,Overcast,220,2012-12-18 10:15:00
5:35 AM,57.2,57.2,100,29.78,10.0,Calm,Calm,-,N/A,,Overcast,0,2012-12-18 10:35:00
5:55 AM,57.2,57.2,100,29.78,10.0,Calm,Calm,-,N/A,,Mostly Cloudy,0,2012-12-18 10:55:00
6:15 AM,55.4,55.4,100,29.78,3.0,Calm,Calm,-,N/A,,Scattered Clouds,0,2012-12-18 11:15:00
6:35 AM,55.4,55.4,100,29.79,1.2,Calm,Calm,-,N/A,,Mostly Cloudy,0,2012-12-18 11:35:00
6:55 AM,55.4,55.4,100,29.80,7.0,SW,3.5,-,N/A,,Overcast,220,2012-12-18 11:55:00
7:15 AM,55.4,55.4,100,29.80,10.0,Calm,Calm,-,N/A,,Mostly Cloudy,0,2012-12-18 12:15:00
7:35 AM,55.4,55.4,100,29.81,10.0,WSW,5.8,-,N/A,,Mostly Cloudy,240,2012-12-18 12:35:00
7:55 AM,57.2,57.2,100,29.82,10.0,WSW,6.9,-,N/A,,Overcast,240,2012-12-18 12:55:00
8:15 AM,57.2,57.2,100,29.82,10.0,SW,5.8,-,N/A,,Mostly Cloudy,230,2012-12-18 13:15:00
8:35 AM,59.0,59.0,100,29.82,10.0,SW,5.8,-,N/A,,Scattered Clouds,230,2012-12-18 13:35:00
8:55 AM,59.0,59.0,100,29.83,10.0,WSW,5.8,-,N/A,,Mostly Cloudy,240,2012-12-18 13:55:00
9:15 AM,60.8,59.0,94,29.83,10.0,WSW,8.1,-,N/A,,Mostly Cloudy,240,2012-12-18 14:15:00
9:35 AM,60.8,59.0,94,29.83,10.0,WSW,10.4,-,N/A,,Mostly Cloudy,250,2012-12-18 14:35:00
9:55 AM,60.8,57.2,88,29.84,10.0,West,11.5,21.9,N/A,,Overcast,260,2012-12-18 14:55:00
10:15 AM,62.6,55.4,77,29.83,10.0,West,12.7,18.4,N/A,,Scattered Clouds,260,2012-12-18 15:15:00
10:35 AM,62.6,53.6,72,29.83,10.0,WSW,8.1,-,N/A,,Clear,240,2012-12-18 15:35:00
10:55 AM,64.4,53.6,68,29.83,10.0,SW,12.7,20.7,N/A,,Clear,230,2012-12-18 15:55:00
11:15 AM,64.4,51.8,64,29.83,10.0,SW,9.2,23.0,N/A,,Scattered Clouds,230,2012-12-18 16:15:00
11:35 AM,64.4,50.0,59,29.81,10.0,SW,11.5,19.6,N/A,,Clear,230,2012-12-18 16:35:00
11:55 AM,66.2,46.4,49,29.81,10.0,WSW,11.5,17.3,N/A,,Clear,250,2012-12-18 16:55:00
12:15 PM,66.2,46.4,49,29.81,10.0,West,13.8,19.6,N/A,,Clear,260,2012-12-18 17:15:00
12:35 PM,68.0,44.6,43,29.81,10.0,West,11.5,18.4,N/A,,Clear,260,2012-12-18 17:35:00
12:55 PM,66.2,42.8,43,29.81,10.0,WSW,17.3,25.3,N/A,,Clear,240,2012-12-18 17:55:00
1:15 PM,68.0,41.0,37,29.81,10.0,West,17.3,27.6,N/A,,Clear,270,2012-12-18 18:15:00
1:35 PM,68.0,41.0,37,29.80,10.0,West,12.7,18.4,N/A,,Clear,270,2012-12-18 18:35:00
1:55 PM,68.0,39.2,35,29.81,10.0,WSW,12.7,19.6,N/A,,Clear,240,2012-12-18 18:55:00
2:15 PM,68.0,39.2,35,29.81,10.0,West,15.0,20.7,N/A,,Clear,270,2012-12-18 19:15:00
2:35 PM,68.0,37.4,33,29.82,10.0,West,15.0,20.7,N/A,,Clear,260,2012-12-18 19:35:00
2:55 PM,66.2,37.4,35,29.84,10.0,WSW,15.0,24.2,N/A,,Clear,250,2012-12-18 19:55:00
3:15 PM,64.4,35.6,34,29.84,10.0,West,15.0,27.6,N/A,,Clear,280,2012-12-18 20:15:00
3:35 PM,64.4,35.6,34,29.85,10.0,West,12.7,25.3,N/A,,Clear,260,2012-12-18 20:35:00
3:55 PM,64.4,35.6,34,29.86,10.0,West,12.7,19.6,N/A,,Clear,280,2012-12-18 20:55:00
4:15 PM,64.4,35.6,34,29.88,10.0,West,11.5,19.6,N/A,,Clear,260,2012-12-18 21:15:00
4:35 PM,62.6,35.6,37,29.88,10.0,West,9.2,16.1,N/A,,Clear,280,2012-12-18 21:35:00
4:55 PM,60.8,35.6,39,29.89,10.0,West,8.1,-,N/A,,Clear,280,2012-12-18 21:55:00
5:15 PM,60.8,35.6,39,29.91,10.0,West,8.1,16.1,N/A,,Clear,280,2012-12-18 22:15:00
5:35 PM,59.0,33.8,39,29.92,10.0,West,8.1,-,N/A,,Clear,280,2012-12-18 22:35:00
5:55 PM,57.2,33.8,41,29.93,10.0,West,4.6,-,N/A,,Clear,280,2012-12-18 22:55:00
6:15 PM,55.4,33.8,44,29.93,10.0,Calm,Calm,-,N/A,,Clear,0,2012-12-18 23:15:00
6:35 PM,50.0,39.2,66,29.94,10.0,West,3.5,-,N/A,,Clear,270,2012-12-18 23:35:00
6:55 PM,53.6,35.6,51,29.94,10.0,West,3.5,-,N/A,,Clear,270,2012-12-18 23:55:00
7:15 PM,51.8,37.4,58,29.95,10.0,Calm,Calm,-,N/A,,Clear,0,2012-12-19 00:15:00
7:35 PM,46.4,39.2,76,29.96,10.0,SW,3.5,-,N/A,,Clear,220,2012-12-19 00:35:00
7:55 PM,46.4,39.2,76,29.96,10.0,Calm,Calm,-,N/A,,Clear,0,2012-12-19 00:55:00
8:15 PM,42.8,39.2,87,29.97,10.0,SW,3.5,-,N/A,,Clear,230,2012-12-19 01:15:00
8:35 PM,42.8,41.0,93,29.98,10.0,Calm,Calm,-,N/A,,Clear,0,2012-12-19 01:35:00
8:55 PM,42.8,39.2,87,29.98,10.0,Calm,Calm,-,N/A,,Clear,0,2012-12-19 01:55:00
9:15 PM,41.0,39.2,93,29.99,10.0,WSW,3.5,-,N/A,,Clear,240,2012-12-19 02:15:00
9:35 PM,42.8,39.2,87,29.99,10.0,Calm,Calm,-,N/A,,Clear,0,2012-12-19 02:35:00
9:55 PM,42.8,41.0,93,30.00,10.0,Calm,Calm,-,N/A,,Clear,0,2012-12-19 02:55:00
10:15 PM,42.8,37.4,81,30.01,10.0,Calm,Calm,-,N/A,,Clear,0,2012-12-19 03:15:00
10:35 PM,41.0,37.4,87,30.01,10.0,Calm,Calm,-,N/A,,Clear,0,2012-12-19 03:35:00
10:55 PM,41.0,37.4,87,30.01,10.0,Calm,Calm,-,N/A,,Clear,0,2012-12-19 03:55:00
11:15 PM,39.2,37.4,93,30.01,10.0,Calm,Calm,-,N/A,,Clear,0,2012-12-19 04:15:00
11:35 PM,39.2,37.4,93,30.01,10.0,Calm,Calm,-,N/A,,Clear,0,2012-12-19 04:35:00
11:55 PM,39.2,37.4,93,30.01,10.0,Calm,Calm,-,N/A,,Clear,0,2012-12-19 04:55:00